Herzlich willkommen!

Am freundlichen Bodensee-Flugplatz zwischen Schwarzwald, Rhein und Alpen.

Aktuelles

06.10.2019
Winterpause
NOTAMs Q) LSAS/QFAAP/IV/NBO /A /000/999/4741N00908E A) EDTZ B) 19/12/16 00:00 C) 20/01/30 23:59 E) AD PPR +49 (0) 1727411981.
— Flugleitung EDTZ

Live am Platz

Die Bilder unserer Webcams werden alle 5 Minuten aktualisiert.

Sonnenaufgang:

06:33 UTC / 07:33 Lokal

Sonnenuntergang:

15:44 UTC / 16:44 Lokal

METAR (19.11.2019 01:50 UTC):

EDNY 190150Z AUTO 06003KT 9999 // SCT130/// BKN220/// M00/M01 Q1016
VFR

TAF (18.11.2019 23:00 UTC):

TAF EDNY 182300Z 1900/1924 VRB03KT 9999 BKN025

Alle Angaben unverbindlich und ohne Gewähr. Zeiten genähert.

Für den Verkehrslandeplatz Konstanz werden keine offiziellen Wetterinformationen ausgegeben. Daher werden zur Orientierung Daten des nahegelegenen Flughafens Friedrichshafen dargestellt.

Flugwetterdaten zur Verfügung gestellt von wippich.aero.